Other Public Products
Issued by NWS Grand Forks, ND

Home | Current Version | Previous Version | Text Only | Print | Product List | Glossary On
Versions: 1 2 3 4 5 6 7 8 9 10 11 12 13 14 15 16 17 18 19 20 21 22 23 24 25 26 27 28 29 30 31 32 33 34 35 36 37 38 39 40 41 42 43 44 45 46 47 48 49 50
000
FPUS83 KFGF 261131
OPUFGF
PRAIRIE TO PINES WEATHER ROUNDUP
NATIONAL WEATHER SERVICE EASTERN NORTH DAKOTA/GRAND FORKS ND
600 AM CDT FRI MAY 26 2017

 **SATELLITE DATA USED TO AUGMENT SKY COVER AT AUTOMATED STATIONS**
 *****  WEATHER ACROSS EASTERN NORTH DAKOTA  *****

CITY           SKY/WX    TMP DP  RH WIND       PRES   REMARKS
GRAND FORKS    FAIR      50  46  86 W9        29.59R
GRAND FORKS AF FAIR      47  44  89 W8        29.60R
GRAND CITY NWS NOT AVBL
BUXTON           N/A     50  48  92 SW6         N/A
DEVILS LAKE    NOT AVBL
FARGO          FAIR      49  45  86 SW5       29.63R
WAHPETON ARPT  FAIR      46  43  87 W6        29.67R
$$

 *****  WEATHER ACROSS CENTRAL AND WESTERN NORTH DAKOTA  *****

CITY           SKY/WX    TMP DP  RH WIND       PRES   REMARKS
JAMESTOWN      FAIR      48  44  86 W8        29.66R
BISMARCK       FAIR      50  42  74 W12       29.72R
MINOT          FAIR      50  44  80 SW13      29.62R
MINOT AFB      CLOUDY    50  45  81 W18       29.60R
GARRISON         N/A     45  40  82 W13       29.65R
WILLISTON      CLOUDY    51  41  68 W12       29.70R
DICKINSON      CLOUDY    47  37  68 W23G29    29.73R
HETTINGER      FAIR      43  36  76 W15       29.80R
$$

 *****  OTHER OBSERVATIONS NORTHEAST NORTH DAKOTA  *****

CITY           SKY/WX    TMP DP  RH WIND       PRES   REMARKS
WALHALLA       NOT AVBL
LANGDON        FAIR      43  43 100 SW9       29.60R
CAVALIER       FAIR      48  43  81 SW5       29.58R
GRAFTON        FAIR      48  48 100 W7        29.61R
CANDO          NOT AVBL
FORT TOTTEN      N/A     47  44  89 S2        29.95S
ROLLA          FAIR      45  45 100 SW14      29.59R
RUGBY          NOT AVBL
 ***** THE ABOVE OBSERVATIONS ARE NON NWS ARE NOT QUALITY
        CONTROLLED AND MAY MIS-REPORT RAIN FOR SNOW...
$$

 *****  OTHER OBSERVATIONS SOUTHEAST NORTH DAKOTA *****

CITY           SKY/WX    TMP DP  RH WIND       PRES   REMARKS
COOPERSTOWN    FAIR      48  45  87 W10       29.65R
VALLEY CITY    FAIR      48  48 100 W12       29.67R
OAKES          NOT AVBL
GWINNER          N/A     48  46  93 MISG      29.68R
SHEYENNE NWR     N/A     48  46  91 W6        29.95S
BUFFALO          N/A     47  43  86 E3          N/A
WYNDMERE         N/A     50  46  87 W8          N/A
 ***** THE ABOVE OBSERVATIONS ARE NON NWS ARE NOT QUALITY
       CONTROLLED AND MAY MIS-REPORT RAIN FOR SNOW...
$$

  *****  WEATHER ACROSS NORTHERN MINNESOTA  *****

CITY           SKY/WX    TMP DP  RH WIND       PRES   REMARKS
FLAG ISLAND    CLOUDY    55  52  88 S16       29.59R
WARROAD        FAIR      55  52  88 S5        29.60R
ROSEAU         MOCLDY    54  48  82 S6        29.60R
HALLOCK        MOCLDY    46  45  93 S3        29.58S
THF RVR FALLS  FAIR      50  49  96 S6        29.61R
HALSTAD          N/A     47  45  91 SW5         N/A
FOSSTON        FAIR      52  48  87 S8        29.63S
BAUDETTE       MOCLDY    56  51  84 SE8       29.62S
WASKISH        FAIR      55  52  88 S7        29.63R
CROOKSTON      FAIR      46  46 100 SE5       29.62R FOG
$$
  *****  WEATHER ACROSS CENTRAL AND WEST MINNESOTA  *****

CITY           SKY/WX    TMP DP  RH WIND       PRES   REMARKS
BEMIDJI        FAIR      51  50  97 CALM      29.64R
PARK RAPIDS    FAIR      54  49  83 SE7       29.64R
WADENA         FAIR      52  50  93 CALM      29.65R
DETROIT LAKES  FAIR      52  50  93 S3        29.65R
MOORHEAD       FAIR      48  46  93 SW5       29.65R
FERGUS FALLS   FAIR      50  50 100 SW5       29.65R FOG
ELBOW LAKE     FAIR      50  50  99 SW7       29.67R
MORRIS MN      FAIR      50  48  93 CALM      29.65R FOG
STAPLES        FAIR      54  50  87 S3        29.66R
WHEATON        FAIR      54  46  76 W9        29.69R
$$
  *****  WEATHER ELSEWHERE ACROSS MINNESOTA  *****

CITY           SKY/WX    TMP DP  RH WIND       PRES   REMARKS
DULUTH         CLOUDY    49  47  93 E10       29.72F
INTRNTL FALLS  CLOUDY    53  51  93 SE7       29.65S
ELY            CLOUDY    52  48  87 SE5       29.73S
CLOQUET        CLOUDY    46  45  93 E3        29.72S
BRAINERD       FAIR      52  51  97 SE3       29.66S
HIBBING        CLOUDY    50  49  96 E5        29.70S
ALEXANDRIA     FAIR      52  50  93 S3        29.66S
SAINT CLOUD    FAIR      56  53  90 SE3       29.67R
MINNEAPOLIS    CLOUDY    61  52  72 SE8       29.70R
$$

  *****  WEATHER ACROSS SOUTH DAKOTA  *****

CITY           SKY/WX    TMP DP  RH WIND       PRES   REMARKS
SIOUX FALLS    CLOUDY    54  51  90 CALM      29.70R
BROOKINGS      FAIR      52  48  86 MISG      29.70R
WATERTOWN      FAIR      51  46  83 NW9       29.70R
HURON          FAIR      49  45  86 NW9       29.75R
SISSETON         N/A     55  47  74 NW10      29.67R
ABERDEEN       FAIR      50  42  74 W10       29.72R
MITCHELL       FAIR      54  46  74 NW12      29.76R
PIERRE         FAIR      50  41  71 W15       29.79R
MOBRIDGE       FAIR      48  41  76 NW10      29.74R
RAPID CITY     FAIR      44  33  65 CALM      29.88S
$$

  *****  SOME WEATHER IN NEARBY STATES *****

CITY           SKY/WX    TMP DP  RH WIND       PRES   REMARKS
GLASGOW MT     FAIR      41  36  82 W14       29.79R
GREAT FALLS MT FAIR      37  34  89 SW10      29.95R
CHEYENNE WY    FAIR      37  32  82 NW6       29.98R
SCOTTSBLUFF NE FAIR      40  35  83 W7        29.94R
OMAHA NE       CLOUDY    64  55  72 CALM      29.67R
DES MOINES IA  CLOUDY    61  53  75 E8        29.67S
DAVENPORT IA   FAIR      56  54  93 SE7       29.79S
CHICAGO IL     MOCLDY    53  50  89 CALM      29.84R
EAU CLAIRE WI  CLOUDY    59  54  83 SE7       29.75S
LA CROSSE WI   FAIR      58  56  93 SE6       29.76R
$$

  *****  SOME NATIONAL WEATHER *****

CITY           SKY/WX    TMP DP  RH WIND       PRES   REMARKS
LA GUARDIA NY  CLOUDY    58  54  86 NW9       29.55R
RALEIGH NC     FAIR      60  54  80 SW7       29.89R
ATLANTA GA     FAIR      58  51  78 W5        30.01R
NEW ORLEANS LA FAIR      70  64  81 S6        29.95R
OKLAHOMA CITY  FAIR      72  61  68 S13       29.58R
ALBUQUERQUE NM FAIR      58  10  15 SE6       30.00R
SALT LAKE CITY FAIR      54  39  57 N3        29.67F
LOS ANGELES CA CLOUDY    61  54  77 W6        29.92F
BOISE ID       CLOUDY    50  43  77 W6        29.83R
SEATTLE WA     FAIR      55  48  77 CALM      29.93R
$$

*** WEATHER ACROSS MANITOBA...SASKATCHEWAN AND ONTARIO ***
                ***ONTARIO***

CITY           SKY/WX    TMP DP  RH WIND       PRES   REMARKS
GERALDTON      MOCLDY    43  41  93 CALM      29.81R
THUNDER BAY    CLOUDY    46  45  93 NE6       29.78F
SIOUX LOOKOUT  CLOUDY    54  46  76 S6        29.69R
TORONTO        PTSUNNY   55  54  94 N10       29.62R
BIG TROUT LK   CLEAR     50  41  71 SE8       29.69S
PICKLE LAKE    MOCLDY    52  43  71 S9        29.71
DRYDEN         CLOUDY    54  50  87 S15       29.66
KENORA         MOCLDY    55  50  82 S15       29.60S
$$
                *** MANITOBA***

CITY           SKY/WX    TMP DP  RH WIND       PRES   REMARKS
BRANDON        PTCLDY    48  43  81 W14       29.52R
DAUPHIN        MOCLDY    52  45  76 SW14G21   29.44R
ISLAND LAKE    NOT AVBL
PILOT MOUND      N/A     39  37  93 SW6         N/A
THE PAS        MOCLDY    50  48  93 NE5       29.36S
THOMPSON       MOCLDY    52  43  71 NE3       29.50S
WINNIPEG       PTCLDY    48  43  81 SW8       29.54R
LYNN LAKE      LGT RAIN  48  46  93 E5        29.54R
CHURCHILL      CLOUDY    36  32  87 E15       29.67F
GILLAM         CLOUDY    54  36  50 SE5       29.57R
$$
                ***SASKATCHEWAN***

CITY           SKY/WX    TMP DP  RH WIND       PRES   REMARKS
ESTEVAN        CLOUDY    48  45  87 W15G22    29.62R
KINDERSLEY     PTCLDY    39  37  93 W9        29.73R
LLOYDMINSTER   CLEAR     39  37  93 W8        29.72R
PRINCE ALBERT  CLOUDY    48  46  93 NW8       29.54R
REGINA         CLOUDY    46  45  93 NW22G28   29.60R
YORKTON          N/A     50  48  93 W13       29.46R



USA.gov is the U.S. government's official web portal to all federal, state and local government web resources and services.